^^

..:: Storico WU ::.. Logo MeteoMincio




  Full-screen


Lo storico viene creato da WUnderground con i dati che la stazione Meteomincio invia dal 15 maggio 2010. L' aggiornamento viene fatto ogni 5 minuti circa, tuttavia possono esserci intervalli più ampi a causa di errori, interruzioni di servizio o problemi nell' invio tramite FTP.

Storico stazione MeteoMincio
 
Giorno Sommario per Agosto 17, 2017 Unità:  Metrico    Inglese   Entrambi
« Precedente Giorno
Prossimo Giorno »
Giorno Settimana Mese Anno Custom
  Corrente: Max: Min: Media:
Temperatura: 22.6 °C 25.1 °C 21.2 °C 22.7 °C
Dew Point: 19.5 °C 19.5 °C 18.1 °C 18.7 °C
Humidità: 83 % 85 % 70 % 78 %
Velocità vento: 64.8 km/h 64.8 km/h 64.8 km/h 64.8 km/h
Raffica: 64.8 km/h 64.8 km/h - -
Direzione:NNW - - ENE
Pressione: 1017.2 hPa 1017.2 hPa 1016.1 hPa -
Precipitazioni: 0.0 mm      
Historical Graphs
 
 
Tabulato Dati per Agosto 17, 2017
Ora Temperatura Dew Point Pressione Direzione Velocità vento Raffica Umidità Intensità pioggia (oraria) Info solare Situazione
00:01 25.1 °C 19.2 °C 1016.5 hPa NE 64.8 km/h 64.8 km/h 70 % 0.0 mm 0.0 W/m2 CLR
00:06 24.9 °C 19.1 °C 1016.5 hPa NE 64.8 km/h 64.8 km/h 70 % 0.0 mm 0.0 W/m2 CLR
00:11 24.8 °C 19.2 °C 1016.5 hPa NE 64.8 km/h 64.8 km/h 71 % 0.0 mm 0.0 W/m2 CLR
00:16 24.7 °C 19.3 °C 1016.5 hPa NE 64.8 km/h 64.8 km/h 72 % 0.0 mm 0.0 W/m2 CLR
00:21 24.4 °C 19.0 °C 1016.5 hPa ENE 64.8 km/h 64.8 km/h 72 % 0.0 mm 0.0 W/m2 CLR
00:26 24.3 °C 19.1 °C 1016.5 hPa ENE 64.8 km/h 64.8 km/h 73 % 0.0 mm 0.0 W/m2 CLR
00:31 24.2 °C 19.2 °C 1016.5 hPa ENE 64.8 km/h 64.8 km/h 74 % 0.0 mm 0.0 W/m2 CLR
00:36 24.1 °C 19.2 °C 1016.5 hPa ENE 64.8 km/h 64.8 km/h 74 % 0.0 mm 0.0 W/m2 CLR
00:41 24.1 °C 19.1 °C 1016.5 hPa ENE 64.8 km/h 64.8 km/h 74 % 0.0 mm 0.0 W/m2 CLR
00:46 24.1 °C 19.1 °C 1016.5 hPa ENE 64.8 km/h 64.8 km/h 74 % 0.0 mm 0.0 W/m2 CLR
00:51 24.1 °C 19.2 °C 1016.5 hPa NE 64.8 km/h 64.8 km/h 74 % 0.0 mm 0.0 W/m2 CLR
00:56 24.1 °C 19.2 °C 1016.5 hPa NE 64.8 km/h 64.8 km/h 74 % 0.0 mm 0.0 W/m2 CLR
01:01 24.1 °C 19.1 °C 1016.5 hPa NE 64.8 km/h 64.8 km/h 74 % 0.0 mm 0.0 W/m2 CLR
01:06 24.0 °C 19.1 °C 1016.5 hPa NE 64.8 km/h 64.8 km/h 74 % 0.0 mm 0.0 W/m2 CLR
01:11 24.0 °C 19.1 °C 1016.5 hPa NE 64.8 km/h 64.8 km/h 74 % 0.0 mm 0.0 W/m2 CLR
01:16 24.0 °C 19.1 °C 1016.5 hPa NNE 64.8 km/h 64.8 km/h 74 % 0.0 mm 0.0 W/m2 CLR
01:21 23.9 °C 19.0 °C 1016.5 hPa NE 64.8 km/h 64.8 km/h 74 % 0.0 mm 0.0 W/m2 CLR
01:26 24.0 °C 18.8 °C 1016.5 hPa NE 64.8 km/h 64.8 km/h 73 % 0.0 mm 0.0 W/m2 CLR
01:31 24.0 °C 18.8 °C 1016.5 hPa NE 64.8 km/h 64.8 km/h 73 % 0.0 mm 0.0 W/m2 CLR
01:36 24.0 °C 18.8 °C 1016.5 hPa NE 64.8 km/h 64.8 km/h 73 % 0.0 mm 0.0 W/m2 CLR
01:41 23.9 °C 18.8 °C 1016.5 hPa NE 64.8 km/h 64.8 km/h 73 % 0.0 mm 0.0 W/m2 CLR
01:46 23.8 °C 18.7 °C 1016.5 hPa NE 64.8 km/h 64.8 km/h 73 % 0.0 mm 0.0 W/m2 CLR
01:48 23.8 °C 18.7 °C 1016.5 hPa NE 64.8 km/h 64.8 km/h 73 % 0.0 mm 0.0 W/m2 CLR
01:53 23.7 °C 18.8 °C 1016.5 hPa NE 64.8 km/h 64.8 km/h 74 % 0.0 mm 0.0 W/m2 CLR
01:58 23.7 °C 18.8 °C 1016.8 hPa NNE 64.8 km/h 64.8 km/h 74 % 0.0 mm 0.0 W/m2 CLR
02:03 23.6 °C 18.7 °C 1016.8 hPa NE 64.8 km/h 64.8 km/h 74 % 0.0 mm 0.0 W/m2 CLR
02:08 23.6 °C 18.7 °C 1016.8 hPa NE 64.8 km/h 64.8 km/h 74 % 0.0 mm 0.0 W/m2 CLR
02:13 23.4 °C 18.8 °C 1016.8 hPa NE 64.8 km/h 64.8 km/h 75 % 0.0 mm 0.0 W/m2 CLR
02:18 23.3 °C 18.7 °C 1016.8 hPa NNE 64.8 km/h 64.8 km/h 75 % 0.0 mm 0.0 W/m2 CLR
02:23 23.3 °C 18.6 °C 1016.8 hPa NE 64.8 km/h 64.8 km/h 75 % 0.0 mm 0.0 W/m2 CLR
02:28 23.2 °C 18.8 °C 1016.8 hPa NE 64.8 km/h 64.8 km/h 76 % 0.0 mm 0.0 W/m2 CLR
02:33 23.2 °C 18.7 °C 1016.8 hPa NE 64.8 km/h 64.8 km/h 76 % 0.0 mm 0.0 W/m2 CLR
02:38 23.1 °C 18.6 °C 1016.8 hPa NE 64.8 km/h 64.8 km/h 76 % 0.0 mm 0.0 W/m2 CLR
02:43 23.1 °C 18.8 °C 1016.8 hPa NE 64.8 km/h 64.8 km/h 77 % 0.0 mm 0.0 W/m2 CLR
02:48 23.0 °C 18.7 °C 1016.8 hPa NE 64.8 km/h 64.8 km/h 77 % 0.0 mm 0.0 W/m2 CLR
02:53 23.0 °C 18.7 °C 1016.8 hPa NE 64.8 km/h 64.8 km/h 77 % 0.0 mm 0.0 W/m2 CLR
02:58 22.9 °C 18.7 °C 1016.8 hPa NE 64.8 km/h   77 % 0.0 mm 0.0 W/m2 CLR
03:03 22.9 °C 18.7 °C 1016.8 hPa NE 64.8 km/h 64.8 km/h 77 % 0.0 mm 0.0 W/m2 CLR
03:08 22.8 °C 18.8 °C 1016.8 hPa NE 64.8 km/h 64.8 km/h 78 % 0.0 mm 0.0 W/m2 CLR
03:13 22.7 °C 18.7 °C 1016.8 hPa NE 64.8 km/h 64.8 km/h 78 % 0.0 mm 0.0 W/m2 CLR
03:18 22.8 °C 18.7 °C 1016.5 hPa NE 64.8 km/h 64.8 km/h 78 % 0.0 mm 0.0 W/m2 CLR
03:23 22.7 °C 18.7 °C 1016.5 hPa NE 64.8 km/h 64.8 km/h 78 % 0.0 mm 0.0 W/m2 CLR
03:28 22.5 °C 18.4 °C 1016.5 hPa NE 64.8 km/h 64.8 km/h 78 % 0.0 mm 0.0 W/m2 CLR
03:33 22.6 °C 18.5 °C 1016.5 hPa NE 64.8 km/h 64.8 km/h 78 % 0.0 mm 0.0 W/m2 CLR
03:38 22.6 °C 18.5 °C 1016.5 hPa NE 64.8 km/h 64.8 km/h 78 % 0.0 mm 0.0 W/m2 CLR
03:43 22.6 °C 18.6 °C 1016.5 hPa NE 64.8 km/h 64.8 km/h 78 % 0.0 mm 0.0 W/m2 CLR
03:48 22.6 °C 18.5 °C 1016.5 hPa NE 64.8 km/h 64.8 km/h 78 % 0.0 mm 0.0 W/m2 CLR
03:53 22.4 °C 18.4 °C 1016.1 hPa NE 64.8 km/h 64.8 km/h 78 % 0.0 mm 0.0 W/m2 CLR
03:58 22.3 °C 18.3 °C 1016.1 hPa NNE 64.8 km/h 64.8 km/h 78 % 0.0 mm 0.0 W/m2 CLR
04:03 22.3 °C 18.3 °C 1016.1 hPa NNE 64.8 km/h 64.8 km/h 78 % 0.0 mm 0.0 W/m2 CLR
04:08 22.2 °C 18.4 °C 1016.1 hPa NNE 64.8 km/h 64.8 km/h 79 % 0.0 mm 0.0 W/m2 CLR
04:13 22.2 °C 18.2 °C 1016.1 hPa NNE 64.8 km/h 64.8 km/h 78 % 0.0 mm 0.0 W/m2 CLR
04:18 22.2 °C 18.2 °C 1016.1 hPa NNE 64.8 km/h 64.8 km/h 78 % 0.0 mm 0.0 W/m2 CLR
04:23 22.2 °C 18.2 °C 1016.1 hPa NNE 64.8 km/h 64.8 km/h 78 % 0.0 mm 0.0 W/m2 CLR
04:28 22.1 °C 18.2 °C 1016.1 hPa NE 64.8 km/h 64.8 km/h 79 % 0.0 mm 0.0 W/m2 CLR
04:33 21.9 °C 18.1 °C 1016.1 hPa NE 64.8 km/h 64.8 km/h 79 % 0.0 mm 0.0 W/m2 CLR
04:38 21.9 °C 18.1 °C 1016.5 hPa NE 64.8 km/h 64.8 km/h 79 % 0.0 mm 0.0 W/m2 CLR
04:43 21.9 °C 18.1 °C 1016.5 hPa NE 64.8 km/h 64.8 km/h 79 % 0.0 mm 0.0 W/m2 CLR
04:48 21.9 °C 18.1 °C 1016.5 hPa NE 64.8 km/h 64.8 km/h 79 % 0.0 mm 0.0 W/m2 CLR
04:53 21.8 °C 18.2 °C 1016.5 hPa NE 64.8 km/h 64.8 km/h 80 % 0.0 mm 0.0 W/m2 CLR
04:58 21.9 °C 18.3 °C 1016.5 hPa NE 64.8 km/h 64.8 km/h 80 % 0.0 mm 0.0 W/m2 CLR
05:03 22.0 °C 18.2 °C 1016.5 hPa NE 64.8 km/h 64.8 km/h 79 % 0.0 mm 0.0 W/m2 CLR
05:08 21.9 °C 18.1 °C 1016.5 hPa NE 64.8 km/h 64.8 km/h 79 % 0.0 mm 0.0 W/m2 CLR
05:13 21.9 °C 18.1 °C 1016.5 hPa NE 64.8 km/h 64.8 km/h 79 % 0.0 mm 0.0 W/m2 CLR
05:18 21.9 °C 18.1 °C 1016.5 hPa NE 64.8 km/h 64.8 km/h 79 % 0.0 mm 0.0 W/m2 CLR
05:22 21.9 °C 18.3 °C 1016.5 hPa NE 64.8 km/h 64.8 km/h 80 % 0.0 mm 0.0 W/m2 CLR
05:23 21.9 °C 18.3 °C 1016.5 hPa NE 64.8 km/h 64.8 km/h 80 % 0.0 mm 0.0 W/m2 CLR
05:27 21.9 °C 18.1 °C 1016.5 hPa NE 64.8 km/h 64.8 km/h 79 % 0.0 mm 0.0 W/m2 CLR
05:31 21.9 °C 18.3 °C 1016.5 hPa NE 64.8 km/h 64.8 km/h 80 % 0.0 mm 0.0 W/m2 CLR
05:36 21.9 °C 18.3 °C 1016.8 hPa NE 64.8 km/h 64.8 km/h 80 % 0.0 mm 0.0 W/m2 CLR
05:41 21.8 °C 18.2 °C 1016.8 hPa NE 64.8 km/h 64.8 km/h 80 % 0.0 mm 0.0 W/m2 CLR
05:46 21.8 °C 18.4 °C 1016.8 hPa NNE 64.8 km/h 64.8 km/h 81 % 0.0 mm 0.0 W/m2 CLR
05:51 21.8 °C 18.4 °C 1016.8 hPa NNW 64.8 km/h 64.8 km/h 81 % 0.0 mm 0.0 W/m2 CLR
05:56 21.7 °C 18.5 °C 1016.8 hPa North 64.8 km/h 64.8 km/h 82 % 0.0 mm 0.0 W/m2 CLR
06:01 21.7 °C 18.7 °C 1016.5 hPa NNE 64.8 km/h 64.8 km/h 83 % 0.0 mm 0.0 W/m2 CLR
06:06 21.7 °C 18.9 °C 1016.8 hPa NNE 64.8 km/h 64.8 km/h 84 % 0.0 mm 0.0 W/m2 CLR
06:11 21.8 °C 19.2 °C 1016.8 hPa NNE 64.8 km/h 64.8 km/h 85 % 0.0 mm 0.0 W/m2 CLR
06:16 21.7 °C 19.1 °C 1016.8 hPa NNE 64.8 km/h 64.8 km/h 85 % 0.0 mm 0.0 W/m2 CLR
06:21 21.8 °C 19.0 °C 1016.8 hPa NNE 64.8 km/h 64.8 km/h 84 % 0.0 mm 0.0 W/m2 CLR
06:26 21.9 °C 19.1 °C 1016.8 hPa NNE 64.8 km/h   84 % 0.0 mm 5.0 W/m2 SCT
06:31 21.9 °C 19.1 °C 1016.8 hPa NNE 64.8 km/h 64.8 km/h 84 % 0.0 mm 7.0 W/m2 BKN
06:36 21.8 °C 18.8 °C 1016.8 hPa NNE 64.8 km/h 64.8 km/h 83 % 0.0 mm 9.0 W/m2 BKN
06:41 21.4 °C 18.6 °C 1016.8 hPa NNE 64.8 km/h 64.8 km/h 84 % 0.0 mm 12.0 W/m2 BKN
06:46 21.2 °C 18.6 °C 1016.8 hPa NNE 64.8 km/h 64.8 km/h 85 % 0.0 mm 14.0 W/m2 BKN
06:51 21.2 °C 18.6 °C 1016.8 hPa NNE 64.8 km/h 64.8 km/h 85 % 0.0 mm 18.0 W/m2 BKN
06:56 21.3 °C 18.7 °C 1016.8 hPa NNE 64.8 km/h 64.8 km/h 85 % 0.0 mm 21.0 W/m2 BKN
07:01 21.4 °C 18.8 °C 1016.8 hPa NNE 64.8 km/h 64.8 km/h 85 % 0.0 mm 25.0 W/m2 BKN
07:06 21.4 °C 18.8 °C 1016.8 hPa NNE 64.8 km/h 64.8 km/h 85 % 0.0 mm 35.0 W/m2 BKN
07:11 21.6 °C 19.0 °C 1017.2 hPa NNE 64.8 km/h   85 % 0.0 mm 47.0 W/m2 BKN
07:16 21.6 °C 19.0 °C 1017.2 hPa NNE 64.8 km/h 64.8 km/h 85 % 0.0 mm 53.0 W/m2 SCT
07:21 21.8 °C 18.9 °C 1017.2 hPa NNE 64.8 km/h   84 % 0.0 mm 69.0 W/m2 SCT
07:26 21.7 °C 18.9 °C 1017.2 hPa NNE 64.8 km/h 64.8 km/h 84 % 0.0 mm 79.0 W/m2 SCT
07:31 21.6 °C 18.8 °C 1017.2 hPa NNW 64.8 km/h 64.8 km/h 84 % 0.0 mm 91.0 W/m2 SCT
07:36 21.9 °C 19.1 °C 1017.2 hPa NNW 64.8 km/h 64.8 km/h 84 % 0.0 mm 105.0 W/m2 SCT
07:41 22.1 °C 19.3 °C 1017.2 hPa NNW 64.8 km/h   84 % 0.0 mm 121.0 W/m2 SCT
07:46 22.2 °C 19.2 °C 1017.2 hPa NNW 64.8 km/h 64.8 km/h 83 % 0.0 mm 137.0 W/m2 SCT
07:51 22.4 °C 19.4 °C 1017.2 hPa NNW 64.8 km/h 64.8 km/h 83 % 0.0 mm 153.0 W/m2 FEW
07:56 22.6 °C 19.5 °C 1017.2 hPa NNW 64.8 km/h 64.8 km/h 83 % 0.0 mm 165.0 W/m2 FEW
Stazione Meteorologica MeteoMincio Rivalta s/M (MN)
Con i complimenti di Weather Underground - 2.75 mb


METEO PILLOLE
Maggior quantità di pioggia caduta in 96 ore
Cratère Commerson (2310 m) - Isola di Réunion
Tra il 24 e 27 febbraio 2007 caddero 4936mm di pioggia.

Share
Non seguire questo link o sarai bannato dal sito!